This is the latest recevied weather packets stored in our database for station/object NR0A-4. If no packets are shown the sender has not sent any weather packets the latest 10 day(s).
| Time | Temp. | Humidity | Pressure | Rain* | Wind** | Luminosity | Snow |
|---|---|---|---|---|---|---|---|
| 1788110405 | 31.11° C | 59% | 1008.9 hPa | 0 mm | - | 828 W/m² | - |
| 1788110104 | 31.11° C | 58% | 1008.8 hPa | 0 mm | - | 828 W/m² | - |
| 1788109804 | 31.11° C | 57% | 1008.7 hPa | 0 mm | - | 241 W/m² | - |
| 1788109504 | 31.11° C | 55% | 1008.8 hPa | 0 mm | - | 431 W/m² | - |
| 1788109204 | 31.11° C | 56% | 1008.6 hPa | 0 mm | - | 388 W/m² | - |
| 1788108904 | 31.11° C | 58% | 1008.5 hPa | 0 mm | - | 564 W/m² | - |
| 1788108604 | 31.11° C | 57% | 1008.5 hPa | 0 mm | - | 441 W/m² | - |
| 1788108304 | 31.11° C | 56% | 1008.5 hPa | 0 mm | - | 694 W/m² | - |
| 1788108005 | 30.56° C | 56% | 1008.4 hPa | 0 mm | - | 694 W/m² | - |
| 1788107704 | 30.56° C | 56% | 1008.2 hPa | 0 mm | - | 800 W/m² | - |
| 1788107404 | 30.56° C | 55% | 1008.3 hPa | 0 mm | - | 773 W/m² | - |
| 1788107103 | 30° C | 55% | 1008.4 hPa | 0 mm | - | 731 W/m² | - |
| 1788106804 | 30° C | 56% | 1008.4 hPa | 0 mm | - | 598 W/m² | - |
| 1788106504 | 30° C | 53% | 1008.5 hPa | 0 mm | - | 650 W/m² | - |
| 1788106204 | 30° C | 58% | 1008.5 hPa | 0 mm | - | 642 W/m² | - |
| 1788105905 | 30° C | 59% | 1008.5 hPa | 0 mm | - | 628 W/m² | - |
| 1788105603 | 30° C | 56% | 1008.6 hPa | 0 mm | - | 613 W/m² | - |
| 1788105304 | 29.44° C | 57% | 1008.5 hPa | 0 mm | - | 552 W/m² | - |
| 1788105004 | 29.44° C | 58% | 1008.6 hPa | 0 mm | - | 578 W/m² | - |
| 1788104704 | 29.44° C | 56% | 1008.6 hPa | 0 mm | - | 578 W/m² | - |
| 1788104412 | 29.44° C | 57% | 1008.6 hPa | 0 mm | - | 596 W/m² | - |
| 1788104104 | 29.44° C | 55% | 1008.7 hPa | 0 mm | - | 599 W/m² | - |
| 1788103804 | 28.89° C | 56% | 1008.6 hPa | 0 mm | - | 554 W/m² | - |
| 1788103503 | 28.89° C | 62% | 1008.6 hPa | 0 mm | - | 571 W/m² | - |
| 1788103204 | 28.33° C | 60% | 1008.6 hPa | 0 mm | - | 559 W/m² | - |
* Rain latest hour (hover to see other rain measurements)
** Current wind speed in m/s (hover to see current wind gust speed)